Santa Ana, CA

4:14 PM PDT on March 23, 2017 (GMT -0700)
John Wayne-Orange County

Weather History for KSNA - May, 2012

Change the Weather History Date:

Monday, May 14, 2012

  Actual Average Record
Temperature  
Mean Temperature 67 °F 65 °F  
Max Temperature 77 °F 72 °F 106 °F (2014)
Min Temperature 57 °F 58 °F 54 °F (2000)
Degree Days  
Heating Degree Days 0 1  
Month to date heating degree days 12 25  
Since 1 July heating degree days 1096 1232  
Cooling Degree Days 2 1  
Month to date cooling degree days 9 14  
Year to date cooling degree days 41 43  
Growing Degree Days 16 (Base 50)    
Moisture  
Dew Point 54 °F    
Average Humidity 62    
Maximum Humidity 86    
Minimum Humidity 38    
Precipitation  
Precipitation 0.00 in 0.01 in 0.37 in (2015)
Month to date precipitation 0.01 0.20  
Year to date precipitation 3.87 8.85  
Since 1 July precipitation 6.32  
Snow  
Snow 0.00 in - - ()
Month to date snowfall 0.0  
Year to date snowfall 0.0  
Snow Depth 0.00 in    
Sea Level Pressure  
Sea Level Pressure 30.00 in    
Wind  
Wind Speed 4 mph (SW)    
Max Wind Speed 13 mph    
Max Gust Speed 17 mph    
Visibility 9 miles    
Events      
T = Trace of Precipitation, MM = Missing Value Source: NWS Daily Summary

Daily Weather History Graph

Daily Weather History Graph

Search for Another Location

Airport or City:

Trip Planner

Search our weather history database for the weather conditions in past years. The results will help you decide how hot, cold, wet, or windy it might be!

Date:

Astronomy

May. 14, 2012 Rise Set
Actual Time 5:51 AM PDT 7:45 PM PDT
Civil Twilight 5:23 AM PDT 8:12 PM PDT
Nautical Twilight 4:50 AM PDT 8:45 PM PDT
Astronomical Twilight 4:14 AM PDT 9:21 PM PDT
Moon 2:11 AM PDT (5/14) 2:24 PM PDT (5/14)
Length of Visible Light 14h 49m
Length of Day
13h 54m
Waning Crescent, 31% of the Moon is Illuminated
May 14
Waning Crescent
May 20
New
May 28
First Quarter
Jun 4
Full
Jun 11
Last Quarter

Hourly Weather History & Observations

Time (PDT) Temp. Dew Point Humidity Pressure Visibility Wind Dir Wind Speed Gust Speed Precip Events Conditions
12:53 AM 61.0 °F 54.0 °F 78% 30.04 in 10.0 mi Calm Calm - N/A   Clear
1:53 AM 60.1 °F 54.0 °F 80% 30.03 in 10.0 mi Calm Calm - N/A   Clear
2:53 AM 59.0 °F 53.1 °F 81% 30.03 in 10.0 mi Calm Calm - N/A   Clear
3:53 AM 59.0 °F 53.1 °F 81% 30.03 in 10.0 mi Calm Calm - N/A   Clear
4:53 AM 57.9 °F 53.1 °F 84% 30.03 in 10.0 mi ESE 4.6 mph - N/A   Partly Cloudy
5:53 AM 57.9 °F 53.1 °F 84% 30.03 in 8.0 mi Calm Calm - N/A   Scattered Clouds
6:53 AM 60.1 °F 55.0 °F 83% 30.04 in 7.0 mi South 4.6 mph - N/A   Scattered Clouds
7:08 AM 60.8 °F 55.4 °F 82% 30.04 in 8.0 mi South 5.8 mph - N/A   Mostly Cloudy
7:49 AM 60.8 °F 55.4 °F 82% 30.04 in 7.0 mi SW 3.5 mph - N/A   Scattered Clouds
7:53 AM 61.0 °F 55.0 °F 81% 30.04 in 7.0 mi SSW 3.5 mph - N/A   Scattered Clouds
8:53 AM 63.0 °F 55.0 °F 75% 30.05 in 8.0 mi WSW 3.5 mph - N/A   Scattered Clouds
9:53 AM 66.9 °F 54.0 °F 63% 30.04 in 8.0 mi Calm Calm - N/A   Scattered Clouds
10:53 AM 70.0 °F 55.0 °F 59% 30.02 in 8.0 mi Variable 5.8 mph - N/A   Partly Cloudy
11:53 AM 73.0 °F 55.0 °F 53% 30.02 in 10.0 mi SSW 9.2 mph - N/A   Partly Cloudy
12:53 PM 75.0 °F 55.0 °F 50% 30.00 in 10.0 mi SW 8.1 mph - N/A   Clear
1:53 PM 73.9 °F 53.1 °F 48% 29.99 in 10.0 mi West 8.1 mph - N/A   Clear
2:53 PM 75.9 °F 52.0 °F 43% 29.97 in 10.0 mi SW 9.2 mph - N/A   Clear
3:53 PM 75.0 °F 48.9 °F 40% 29.96 in 10.0 mi West 8.1 mph 16.1 mph N/A   Clear
4:53 PM 73.0 °F 52.0 °F 48% 29.95 in 10.0 mi Variable 6.9 mph - N/A   Clear
5:53 PM 71.1 °F 51.1 °F 49% 29.95 in 10.0 mi West 6.9 mph - N/A   Clear
6:53 PM 69.1 °F 53.1 °F 57% 29.95 in 10.0 mi West 4.6 mph - N/A   Clear
7:53 PM 64.9 °F 55.0 °F 70% 29.96 in 10.0 mi WSW 4.6 mph - N/A   Clear
8:53 PM 64.0 °F 55.0 °F 73% 29.97 in 10.0 mi Calm Calm - N/A   Clear
9:53 PM 63.0 °F 55.0 °F 75% 29.98 in 10.0 mi Calm Calm - N/A   Clear
10:53 PM 62.1 °F 55.0 °F 78% 29.97 in 10.0 mi Calm Calm - N/A   Clear
11:53 PM 61.0 °F 54.0 °F 78% 29.97 in 10.0 mi WSW 3.5 mph - N/A   Clear